Cook, MN

10:55 PM CDT on September 26, 2016 (GMT -0500)
Cook Municipal

Weather History for KCQM - January, 2013

Change the Weather History Date:

Tuesday, January 1, 2013

  Actual Average Record
Temperature  
Mean Temperature -3 °F -  
Max Temperature 14 °F 16 °F 30 °F (1998)
Min Temperature -20 °F 0 °F -34 °F (1999)
Degree Days  
Heating Degree Days 68    
Moisture  
Dew Point -5 °F    
Average Humidity 83    
Maximum Humidity 100    
Minimum Humidity 72    
Precipitation  
Precipitation 0.00 in - - ()
Sea Level Pressure  
Sea Level Pressure 30.02 in    
Wind  
Wind Speed 2 mph (SW)    
Max Wind Speed 13 mph    
Max Gust Speed 16 mph    
Visibility 7 miles    
Events Snow    
Averages and records for this station are not official NWS values.
T = Trace of Precipitation, MM = Missing Value Source: NWS Daily Summary

Daily Weather History Graph

Daily Weather History Graph

Search for Another Location

Airport or City:

Trip Planner

Search our weather history database for the weather conditions in past years. The results will help you decide how hot, cold, wet, or windy it might be!

Date:

Astronomy

Jan. 01, 2013 Rise Set
Actual Time 7:59 AM CST 4:29 PM CST
Civil Twilight 7:23 AM CST 5:05 PM CST
Nautical Twilight 6:44 AM CST 5:44 PM CST
Astronomical Twilight 6:07 AM CST 6:22 PM CST
Moon 9:22 PM CST (1/1) 9:52 AM CST (1/1)
Length of Visible Light 9h 41m
Length of Day
8h 29m
Waning Gibbous, 83% of the Moon is Illuminated
Jan 1
Waning Gibbous
Jan 4
Last Quarter
Jan 11
New
Jan 18
First Quarter
Jan 26
Full

Hourly Weather History & Observations

Time (CST) Temp. Windchill Dew Point Humidity Pressure Visibility Wind Dir Wind Speed Gust Speed Precip Events Conditions
12:17 AM -16.6 °F - -20.2 °F 84% 30.16 in - Calm Calm - N/A   Unknown
12:36 AM -18.4 °F - -23.8 °F 76% 30.15 in - Calm Calm - N/A   Clear
12:57 AM -18.4 °F - -23.8 °F 76% 30.15 in - Calm Calm - N/A   Clear
1:17 AM -18.4 °F - -23.8 °F 76% 30.15 in - Calm Calm - N/A   Clear
1:36 AM -18.4 °F - -23.8 °F 76% 30.14 in - Calm Calm - N/A   Unknown
2:17 AM -18.4 °F - -23.8 °F 76% 30.15 in - Calm Calm - N/A   Clear
2:36 AM -18.4 °F - -23.8 °F 76% 30.15 in - Calm Calm - N/A   Clear
3:17 AM -18.4 °F - -23.8 °F 76% 30.15 in - Calm Calm - N/A   Clear
3:36 AM -18.4 °F - -23.8 °F 76% 30.14 in - Calm Calm - N/A   Clear
3:57 AM -18.4 °F - -23.8 °F 76% 30.14 in - Calm Calm - N/A   Clear
4:16 AM -16.6 °F - -20.2 °F 84% 30.13 in - Calm Calm - N/A   Unknown
4:37 AM -16.6 °F - -20.2 °F 84% 30.13 in 5.0 mi Calm Calm - N/A   Clear
4:57 AM -16.6 °F - -20.2 °F 84% 30.13 in 3.0 mi Calm Calm - N/A   Clear
5:16 AM -18.4 °F - -23.8 °F 76% 30.12 in - Calm Calm - N/A   Unknown
5:37 AM -16.6 °F - -20.2 °F 84% 30.11 in - Calm Calm - N/A   Unknown
5:57 AM -18.4 °F - -23.8 °F 76% 30.11 in - Calm Calm - N/A   Clear
6:16 AM -18.4 °F - -23.8 °F 76% 30.10 in - Calm Calm - N/A   Clear
6:37 AM -18.4 °F - -23.8 °F 76% 30.10 in - Calm Calm - N/A   Clear
6:57 AM -18.4 °F - -23.8 °F 76% 30.10 in - Calm Calm - N/A   Clear
7:16 AM -20.2 °F - -25.6 °F 76% 30.09 in - Calm Calm - N/A   Clear
7:37 AM -20.2 °F - -25.6 °F 76% 30.09 in - Calm Calm - N/A   Clear
7:57 AM -16.6 °F - -22.0 °F 76% 30.08 in - Calm Calm - N/A   Clear
8:16 AM -13.0 °F - -16.6 °F 84% 30.07 in - Calm Calm - N/A   Unknown
8:37 AM -11.2 °F - -14.8 °F 84% 30.07 in 10.0 mi Calm Calm - N/A   Clear
9:16 AM -7.6 °F - -11.2 °F 84% 30.06 in 10.0 mi Calm Calm - N/A   Clear
9:37 AM -4.0 °F -14.6 °F -7.6 °F 85% 30.06 in 10.0 mi WSW 4.6 mph - N/A   Clear
9:57 AM -2.2 °F -12.5 °F -5.8 °F 85% 30.06 in 10.0 mi WSW 4.6 mph - N/A   Clear
10:16 AM -0.4 °F -10.4 °F -5.8 °F 78% 30.05 in 10.0 mi SW 4.6 mph - N/A   Clear
10:37 AM -0.4 °F -15.7 °F -4.0 °F 85% 30.05 in 10.0 mi WSW 9.2 mph - N/A   Clear
11:17 AM 3.2 °F -10.3 °F -2.2 °F 78% 30.03 in 10.0 mi SW 8.1 mph - N/A   Scattered Clouds
11:37 AM 3.2 °F -10.3 °F -0.4 °F 85% 30.02 in 10.0 mi WSW 8.1 mph - N/A   Mostly Cloudy
12:17 PM 6.8 °F -6.9 °F -0.4 °F 72% 29.99 in 10.0 mi WSW 9.2 mph - N/A   Clear
12:37 PM 6.8 °F -7.8 °F 1.4 °F 79% 29.98 in 10.0 mi WSW 10.4 mph - N/A   Clear
12:56 PM 8.6 °F -7.0 °F 1.4 °F 73% 29.98 in 10.0 mi WSW 12.7 mph 16.1 mph N/A   Clear
1:17 PM 6.8 °F -9.3 °F 1.4 °F 79% 29.98 in 10.0 mi West 12.7 mph - N/A   Mostly Cloudy
1:37 PM 6.8 °F -7.8 °F 1.4 °F 79% 29.98 in 7.0 mi WSW 10.4 mph - N/A   Overcast
1:56 PM 6.8 °F -3.5 °F 3.2 °F 85% 29.97 in 3.0 mi WSW 5.8 mph - N/A Snow Light Snow
2:17 PM 6.8 °F -3.5 °F 3.2 °F 85% 29.96 in 2.0 mi SW 5.8 mph - N/A Snow Light Snow
2:37 PM 8.6 °F -3.7 °F 3.2 °F 79% 29.96 in 2.0 mi WSW 8.1 mph - N/A Snow Light Snow
2:56 PM 8.6 °F -2.6 °F 3.2 °F 79% 29.96 in 2.0 mi SW 6.9 mph - N/A Snow Light Snow
3:17 PM 8.6 °F -2.6 °F 3.2 °F 79% 29.96 in 2.5 mi SW 6.9 mph - N/A Snow Light Snow
3:37 PM 8.6 °F 0.1 °F 3.2 °F 79% 29.95 in 3.0 mi SSW 4.6 mph - N/A Snow Light Snow
4:17 PM 8.6 °F 0.1 °F 5.0 °F 85% 29.95 in 4.0 mi SSW 4.6 mph - N/A Snow Light Snow
4:37 PM 8.6 °F 0.1 °F 6.8 °F 92% 29.95 in 3.0 mi SW 4.6 mph - N/A Snow Light Snow
5:16 PM 10.4 °F 2.2 °F 6.8 °F 85% 29.96 in 7.0 mi SW 4.6 mph - N/A Snow Light Snow
5:37 PM 10.4 °F 2.2 °F 6.8 °F 85% 29.95 in 7.0 mi SW 4.6 mph - N/A Snow Light Snow
5:57 PM 10.4 °F 2.2 °F 6.8 °F 85% 29.95 in 10.0 mi SW 4.6 mph - N/A Snow Light Snow
6:16 PM 10.4 °F 2.2 °F 6.8 °F 85% 29.96 in 10.0 mi SW 4.6 mph - N/A Snow Light Snow
6:37 PM 10.4 °F 4.0 °F 6.8 °F 85% 29.95 in 10.0 mi SW 3.5 mph - N/A Snow Light Snow
6:57 PM 10.4 °F 4.0 °F 6.8 °F 85% 29.95 in 10.0 mi SSW 3.5 mph - N/A Snow Light Snow
7:16 PM 10.4 °F - 8.6 °F 92% 29.94 in 10.0 mi Calm Calm - N/A Snow Light Snow
7:37 PM 10.4 °F - 8.6 °F 92% 29.93 in 10.0 mi Calm Calm - N/A   Overcast
7:57 PM 12.2 °F 4.3 °F 8.6 °F 85% 29.93 in 10.0 mi SSW 4.6 mph - N/A   Overcast
8:16 PM 12.2 °F 2.9 °F 10.4 °F 92% 29.92 in 10.0 mi South 5.8 mph - N/A   Overcast
8:37 PM 12.2 °F 4.3 °F 10.4 °F 92% 29.91 in 10.0 mi South 4.6 mph - N/A   Overcast
8:56 PM 12.2 °F 6.1 °F 10.4 °F 92% 29.90 in 10.0 mi South 3.5 mph - N/A   Overcast
9:16 PM 12.2 °F 2.9 °F 10.4 °F 92% 29.90 in 7.0 mi South 5.8 mph - N/A   Overcast
9:37 PM 12.2 °F 4.3 °F 10.4 °F 92% 29.89 in 7.0 mi South 4.6 mph - N/A   Overcast
9:56 PM 12.2 °F 4.3 °F 10.4 °F 92% 29.90 in 7.0 mi South 4.6 mph - N/A   Overcast
10:16 PM 12.2 °F 0.7 °F 10.4 °F 92% 29.89 in 5.0 mi SSW 8.1 mph - N/A   Overcast
10:37 PM 12.2 °F 4.3 °F 12.2 °F 100% 29.89 in 5.0 mi SSW 4.6 mph - N/A   Overcast
10:56 PM 12.2 °F 4.3 °F 12.2 °F 100% 29.89 in 5.0 mi SSW 4.6 mph - N/A   Overcast
11:17 PM 12.2 °F 2.9 °F 12.2 °F 100% 29.88 in 5.0 mi South 5.8 mph - N/A   Overcast
11:37 PM 14.0 °F 6.5 °F 12.2 °F 93% 29.88 in 5.0 mi South 4.6 mph - N/A   Overcast
11:56 PM 14.0 °F 5.1 °F 12.2 °F 93% 29.87 in 5.0 mi South 5.8 mph - N/A   Overcast